• In Belarus
  • List of Countries
  • For 7 days
  • Water Temperature
  • Satellite Maps
  • Weather Map
  • Weather Widgets
  • user-avatar
    Login

    Hourly Weather Zaroschenskiy

    Today, 23 September, Sunday

    Time Temperature Precipitation Wind Pressure Humidity
    00:00 +19°C° 0 mm 5 mps 744 mmHg 55%
    01:00 +19°C° 0 mm 5 mps 744 mmHg 57%
    02:00 +18°C° 0 mm 4 mps 743 mmHg 60%
    03:00 +16°C° 0.2 mm 5 mps 743 mmHg 67%
    04:00 +15°C° 0.2 mm 5 mps 743 mmHg 73%
    05:00 +13°C° 0.2 mm 6 mps 743 mmHg 80%
    06:00 +11°C° 0.8 mm 6 mps 744 mmHg 82%
    07:00 +10°C° 0.8 mm 6 mps 744 mmHg 84%
    08:00 +9°C° 0 mm 5 mps 744 mmHg 86%
    09:00 +9°C° 0.3 mm 5 mps 745 mmHg 84%
    10:00 +9°C° 0.3 mm 5 mps 745 mmHg 82%
    11:00 +11°C° 0.3 mm 4 mps 746 mmHg 80%
    12:00 +11°C° 0 mm 4 mps 746 mmHg 78%
    13:00 +12°C° 0 mm 4 mps 746 mmHg 76%
    14:00 +13°C° 0 mm 3 mps 746 mmHg 72%
    15:00 +12°C° 0 mm 3 mps 746 mmHg 73%
    16:00 +12°C° 0 mm 3 mps 746 mmHg 74%
    17:00 +13°C° 0 mm 2 mps 746 mmHg 75%
    18:00 +11°C° 0 mm 3 mps 746 mmHg 78%
    19:00 +10°C° 0 mm 3 mps 746 mmHg 81%
    20:00 +9°C° 0 mm 3 mps 746 mmHg 84%
    21:00 +9°C° 0 mm 3 mps 746 mmHg 85%
    22:00 +9°C° 0 mm 3 mps 746 mmHg 86%
    23:00 +9°C° 0 mm 3 mps 746 mmHg 88%

    Tomorrow, 24 September, Monday

    Time Temperature Precipitation Wind Pressure Humidity
    00:00 +8°C° 0 mm 3 mps 746 mmHg 88%
    01:00 +8°C° 0 mm 3 mps 746 mmHg 89%
    02:00 +8°C° 0 mm 3 mps 746 mmHg 89%
    03:00 +8°C° 0 mm 3 mps 746 mmHg 87%
    04:00 +8°C° 0 mm 3 mps 746 mmHg 85%
    05:00 +8°C° 0 mm 3 mps 746 mmHg 83%
    06:00 +8°C° 0 mm 4 mps 745 mmHg 79%
    07:00 +10°C° 0 mm 4 mps 745 mmHg 76%
    08:00 +10°C° 0 mm 5 mps 745 mmHg 72%
    09:00 +10°C° 0.4 mm 6 mps 744 mmHg 73%
    10:00 +10°C° 0.4 mm 6 mps 744 mmHg 75%
    11:00 +10°C° 0.4 mm 7 mps 743 mmHg 76%
    12:00 +10°C° 0.9 mm 7 mps 742 mmHg 79%
    13:00 +9°C° 0.9 mm 8 mps 741 mmHg 82%
    14:00 +8°C° 0.9 mm 9 mps 740 mmHg 85%
    15:00 +8°C° 1.6 mm 9 mps 739 mmHg 86%
    16:00 +10°C° 1.6 mm 9 mps 738 mmHg 86%
    17:00 +10°C° 1.6 mm 9 mps 737 mmHg 87%
    18:00 +10°C° 0.5 mm 9 mps 736 mmHg 87%
    19:00 +10°C° 0.5 mm 9 mps 736 mmHg 86%
    20:00 +11°C° 0.5 mm 8 mps 735 mmHg 86%
    21:00 +10°C° 0 mm 8 mps 735 mmHg 85%
    22:00 +9°C° 0 mm 8 mps 735 mmHg 85%
    23:00 +7°C° 0 mm 8 mps 735 mmHg 84%

    Day after tomorrow, 25 September, Tuesday

    Time Temperature Precipitation Wind Pressure Humidity
    00:00 +7°C° 0 mm 8 mps 736 mmHg 84%
    01:00 +7°C° 0 mm 8 mps 736 mmHg 84%
    02:00 +6°C° 0 mm 8 mps 736 mmHg 83%
    03:00 +6°C° 0 mm 8 mps 737 mmHg 83%
    04:00 +6°C° 0 mm 8 mps 737 mmHg 82%
    05:00 +6°C° 0 mm 8 mps 737 mmHg 82%
    06:00 +6°C° 0.1 mm 8 mps 738 mmHg 82%
    07:00 +7°C° 0.1 mm 8 mps 739 mmHg 82%
    08:00 +7°C° 0.1 mm 8 mps 739 mmHg 82%
    09:00 +7°C° 0.2 mm 8 mps 740 mmHg 81%
    10:00 +7°C° 0.2 mm 8 mps 741 mmHg 80%
    11:00 +7°C° 0.2 mm 8 mps 741 mmHg 79%
    12:00 +6°C° 0.1 mm 7 mps 742 mmHg 78%
    13:00 +6°C° 0.1 mm 7 mps 743 mmHg 77%
    14:00 +6°C° 0.1 mm 7 mps 743 mmHg 76%
    15:00 +6°C° 0 mm 7 mps 744 mmHg 76%
    16:00 +7°C° 0 mm 6 mps 745 mmHg 76%
    17:00 +5°C° 0 mm 6 mps 745 mmHg 75%
    18:00 +5°C° 0 mm 6 mps 746 mmHg 75%
    19:00 +6°C° 0 mm 5 mps 747 mmHg 75%
    20:00 +6°C° 0 mm 5 mps 747 mmHg 74%
    21:00 +6°C° 0 mm 5 mps 748 mmHg 76%
    22:00 +5°C° 0 mm 4 mps 748 mmHg 78%
    23:00 +5°C° 0 mm 4 mps 749 mmHg 80%

    26 September, Wednesday

    Time Temperature Precipitation Wind Pressure Humidity
    00:00 +4°C° 0 mm 4 mps 749 mmHg 81%
    01:00 +4°C° 0 mm 4 mps 750 mmHg 82%
    02:00 +3°C° 0 mm 4 mps 751 mmHg 83%
    03:00 +3°C° 0 mm 4 mps 751 mmHg 83%
    04:00 +1°C° 0 mm 4 mps 752 mmHg 84%
    05:00 +1°C° 0 mm 4 mps 753 mmHg 84%
    06:00 +3°C° 0 mm 4 mps 753 mmHg 79%
    07:00 +2°C° 0 mm 5 mps 754 mmHg 74%
    08:00 +3°C° 0 mm 5 mps 755 mmHg 69%
    09:00 +5°C° 0 mm 5 mps 755 mmHg 63%
    10:00 +7°C° 0 mm 4 mps 755 mmHg 57%
    11:00 +8°C° 0 mm 4 mps 755 mmHg 51%
    12:00 +8°C° 0 mm 4 mps 755 mmHg 49%
    13:00 +10°C° 0 mm 4 mps 755 mmHg 48%
    14:00 +10°C° 0 mm 4 mps 755 mmHg 46%
    15:00 +9°C° 0 mm 3 mps 755 mmHg 51%
    16:00 +8°C° 0 mm 3 mps 755 mmHg 57%
    17:00 +8°C° 0 mm 2 mps 755 mmHg 62%
    18:00 +7°C° 0 mm 3 mps 755 mmHg 65%
    19:00 +5°C° 0 mm 3 mps 755 mmHg 68%
    20:00 +5°C° 0 mm 4 mps 754 mmHg 72%
    21:00 +5°C° 0 mm 4 mps 754 mmHg 72%
    22:00 +5°C° 0 mm 5 mps 753 mmHg 73%
    23:00 +5°C° 0 mm 5 mps 753 mmHg 73%

    27 September, Thursday

    Time Temperature Precipitation Wind Pressure Humidity
    00:00 +4°C° 0 mm 6 mps 752 mmHg 71%
    01:00 +5°C° 0 mm 6 mps 752 mmHg 68%
    02:00 +5°C° 0 mm 7 mps 751 mmHg 66%
    03:00 +5°C° 0.2 mm 7 mps 750 mmHg 67%
    04:00 +5°C° 0.2 mm 8 mps 749 mmHg 69%
    05:00 +5°C° 0.2 mm 8 mps 748 mmHg 70%
    06:00 +5°C° 0.6 mm 9 mps 748 mmHg 73%
    07:00 +5°C° 0.6 mm 9 mps 747 mmHg 75%
    08:00 +5°C° 0.6 mm 9 mps 747 mmHg 78%
    09:00 +5°C° 0.6 mm 9 mps 746 mmHg 79%
    10:00 +5°C° 0.6 mm 9 mps 746 mmHg 80%
    11:00 +6°C° 0.6 mm 9 mps 746 mmHg 82%
    12:00 +6°C° 0.3 mm 9 mps 746 mmHg 83%
    13:00 +6°C° 0.3 mm 8 mps 746 mmHg 84%
    14:00 +7°C° 0.3 mm 8 mps 746 mmHg 85%
    15:00 +8°C° 0.2 mm 7 mps 746 mmHg 87%
    16:00 +8°C° 0.2 mm 7 mps 746 mmHg 88%
    17:00 +8°C° 0.2 mm 6 mps 746 mmHg 89%
    18:00 +8°C° 0.1 mm 6 mps 746 mmHg 90%
    19:00 +9°C° 0.1 mm 6 mps 746 mmHg 91%
    20:00 +9°C° 0.1 mm 5 mps 746 mmHg 91%
    21:00 +9°C° 0 mm 5 mps 747 mmHg 92%
    22:00 +9°C° 0 mm 5 mps 747 mmHg 93%
    23:00 +10°C° 0 mm 4 mps 747 mmHg 94%

    28 September, Friday

    Time Temperature Precipitation Wind Pressure Humidity
    00:00 +10°C° 0 mm 4 mps 747 mmHg 95%
    01:00 +10°C° 0 mm 4 mps 747 mmHg 95%
    02:00 +10°C° 0 mm 4 mps 747 mmHg 96%
    03:00 +9°C° 0 mm 5 mps 746 mmHg 95%
    04:00 +9°C° 0 mm 5 mps 746 mmHg 94%
    05:00 +10°C° 0 mm 5 mps 746 mmHg 94%
    06:00 +10°C° 0 mm 6 mps 745 mmHg 92%
    07:00 +10°C° 0 mm 7 mps 745 mmHg 91%
    08:00 +11°C° 0 mm 8 mps 744 mmHg 90%
    09:00 +11°C° 0 mm 8 mps 744 mmHg 87%
    10:00 +12°C° 0 mm 9 mps 743 mmHg 85%
    11:00 +13°C° 0 mm 9 mps 743 mmHg 83%
    12:00 +15°C° 0.1 mm 9 mps 743 mmHg 80%
    13:00 +15°C° 0.1 mm 9 mps 743 mmHg 78%
    14:00 +16°C° 0.1 mm 9 mps 743 mmHg 75%
    15:00 +15°C° 0.3 mm 8 mps 743 mmHg 76%
    16:00 +12°C° 0.3 mm 7 mps 744 mmHg 77%
    17:00 +11°C° 0.3 mm 6 mps 745 mmHg 79%
    18:00 +9°C° 0 mm 5 mps 745 mmHg 82%
    19:00 +8°C° 0 mm 4 mps 746 mmHg 85%
    20:00 +8°C° 0 mm 3 mps 747 mmHg 88%
    21:00 +7°C° 0 mm 3 mps 748 mmHg 89%
    22:00 +7°C° 0 mm 2 mps 748 mmHg 90%
    23:00 +6°C° 0 mm 2 mps 749 mmHg 91%
    Show more